Home > Weather > Evansville > Past weeks

Flag for USA Past Weather in Evansville, Indiana, USA — Yesterday and Last 2 Weeks

Now
75 °F

Light rain. Partly sunny.


Feels Like: 74 °F
Forecast: 74 / 88 °F
Wind: 6 mph from East

Location: Evansville Regional Airport

Current Time: Jun 27, 2016 at 10:07:09 AM

Latest Report: Jun 27, 2016 at 8:54 AM


Visibility: 10 mi

Pressure: 30.11 "Hg

Humidity: 88%

Dew Point: 71 °F

Location of EvansvilleLocation

Past Weather in Evansville — Graph

°F

Evansville Temperature Yesterday

Maximum temperature yesterday: 95 °F (at 12:54 PM)
Minimum temperature yesterday: 72 °F (at 10:59 PM)
Average temperature yesterday: 83 °F

High & Low Weather Summary for the Past Weeks

 TemperatureHumidityPressure
High99 °F (Jun 16, 1:54 PM)96% (Jun 16, 5:54 AM)30.28 "Hg (Jun 16, 5:54 AM)
Low66 °F (Jun 17, 5:54 AM)36% (Jun 18, 12:54 PM)29.78 "Hg (Jun 16, 4:54 PM)
Average82 °F65%29.99 "Hg
* Reported Jun 12 8:54 AM — Jun 27 8:54 AM, Evansville, Weather by CustomWeather, © 2016

Note: Actual official high and low records may vary slightly from our data, if they occured in-between our weather recording intervals... More about our weather records

Advertising

Evansville Weather History for the Previous 24 Hours

Scroll right to see more
 ConditionsComfort  
Time TempWeatherWind HumidityBarometerVisibility
8:54 AM
Mon, Jun 27
75 °FLight rain. Partly sunny.6 mph88%30.11 "Hg10 mi
7:54 AM74 °FMostly cloudy.6 mph91%30.09 "Hg10 mi
7:01 AM74 °FBroken clouds.6 mph91%30.06 "Hg10 mi
5:54 AM73 °FOvercast.3 mph94%30.06 "Hg9 mi
4:54 AM73 °FPassing clouds.5 mph94%30.04 "Hg10 mi
3:54 AM73 °FPassing clouds.5 mph94%30.03 "Hg10 mi
2:54 AM73 °FClear.No wind90%30.01 "Hg10 mi
1:54 AM73 °FClear.5 mph90%30.02 "Hg10 mi
12:54 AM72 °FClear.3 mph93%30.03 "Hg10 mi
11:54 PM
Sun, Jun 26
73 °FThundershowers. Passing clouds.No wind90%30.05 "Hg10 mi
10:59 PM72 °FThunderstorms. Fog.7 mph91%30.09 "Hg3 mi
10:03 PM73 °FStrong thunderstorms. Fog.21 mph94%30.11 "Hg1 mi
9:57 PM75 °FStrong thunderstorms. Overcast.16 mph85%30.11 "Hg1 mi
8:54 PM84 °FOvercast.7 mph67%30.01 "Hg10 mi
7:54 PM85 °FSunny.8 mph63%30.00 "Hg10 mi
6:54 PM90 °FSunny.10 mph52%29.98 "Hg10 mi
5:54 PM91 °FSunny.12 mph49%29.96 "Hg10 mi
4:54 PM94 °FSunny.13 mph44%29.97 "Hg10 mi
3:54 PM94 °FPartly sunny.10 mph43%30.00 "Hg10 mi
2:54 PM95 °FPassing clouds.12 mph39%30.01 "Hg10 mi
1:54 PM95 °FPassing clouds.14 mph39%30.03 "Hg10 mi
12:54 PM95 °FSunny.9 mph37%30.05 "Hg10 mi
11:54 AM93 °FSunny.9 mph41%30.07 "Hg10 mi
10:54 AM92 °FSunny.10 mph47%30.08 "Hg10 mi
Weather by CustomWeather, © 2016

See weather overviewHow to use our weather pages